| time (UTC) | temp C | wind direction | speed KPH | gust KPH | rain 1hr cm | rain 24hr cm | rain mn cm | humidity % | barometer mb |
| 20260509135404 | 21 | 292 | 6.4 | 12.9 | 0.00 | 0.00 | 0.00 | 82 | 1009.3 |
| 20260509133241 | 20 | 317 | 6.4 | 11.3 | 0.00 | 0.00 | 0.00 | 83 | 1009.3 |
| 20260509132227 | 20 | 292 | 4.8 | 11.3 | 0.00 | 0.00 | 0.00 | 83 | 1009.3 |
| 20260509130120 | 18 | 276 | 0.0 | 4.8 | 0.00 | 0.00 | 0.00 | 84 | 1009.5 |
| 20260509125112 | 18 | 309 | 0.0 | 8.0 | 0.00 | 0.00 | 0.00 | 84 | 1009.3 |
| 20260509124102 | 18 | 323 | 3.2 | 8.0 | 0.00 | 0.00 | 0.00 | 84 | 1009.2 |
| 20260509123124 | 18 | 313 | 1.6 | 4.8 | 0.00 | 0.00 | 0.00 | 85 | 1009.1 |
| 20260509122123 | 17 | 312 | 0.0 | 4.8 | 0.00 | 0.00 | 0.00 | 84 | 1009.1 |
| 20260509121144 | 17 | 329 | 0.0 | 0.0 | 0.00 | 0.03 | 0.00 | 84 | 1008.9 |
| 20260509120204 | 17 | 329 | 1.6 | 4.8 | 0.00 | 0.15 | 0.00 | 84 | 1008.8 |
| 20260509114028 | 17 | 310 | 1.6 | 4.8 | 0.00 | 0.15 | 0.00 | 81 | 1008.4 |
| 20260509113037 | 17 | 310 | 1.6 | 4.8 | 0.00 | 0.15 | 0.00 | 80 | 1008.2 |
| 20260509112027 | 18 | 310 | 0.0 | 3.2 | 0.00 | 0.15 | 0.00 | 78 | 1008.0 |
| 20260509111006 | 18 | 252 | 0.0 | 0.0 | 0.00 | 0.15 | 0.00 | 76 | 1007.9 |
| 20260509110027 | 19 | 252 | 0.0 | 0.0 | 0.00 | 0.15 | 0.00 | 74 | 1007.8 |
| 20260509103910 | 20 | 252 | 1.6 | 0.0 | 0.00 | 0.20 | 0.00 | 74 | 1008.0 |
| 20260509102911 | 20 | 290 | 4.8 | 12.9 | 0.00 | 0.20 | 0.00 | 73 | 1008.1 |
| 20260509101920 | 20 | 286 | 3.2 | 9.7 | 0.00 | 0.20 | 0.00 | 73 | 1008.3 |
| 20260509095750 | 20 | 263 | 4.8 | 19.3 | 0.00 | 0.20 | 0.00 | 74 | 1008.3 |
| 20260509094808 | 20 | 311 | 6.4 | 12.9 | 0.00 | 0.28 | 0.00 | 73 | 1007.9 |
| 20260509093743 | 20 | 301 | 3.2 | 8.0 | 0.00 | 0.36 | 0.00 | 70 | 1007.5 |
| 20260509092802 | 21 | 326 | 6.4 | 17.7 | 0.00 | 0.36 | 0.00 | 65 | 1007.1 |
| 20260509091810 | 21 | 348 | 6.4 | 27.4 | 0.00 | 0.36 | 0.00 | 63 | 1006.1 |
| 20260509090739 | 20 | 51 | 11.3 | 27.4 | 0.00 | 0.36 | 0.00 | 64 | 1005.5 |
| 20260509085706 | 20 | 151 | 9.7 | 17.7 | 0.00 | 0.36 | 0.00 | 67 | 1004.4 |
| 20260509084713 | 20 | 155 | 9.7 | 16.1 | 0.00 | 0.36 | 0.00 | 65 | 1004.2 |
| 20260509083721 | 21 | 139 | 8.0 | 12.9 | 0.00 | 0.36 | 0.00 | 62 | 1004.3 |
| 20260509082704 | 21 | 200 | 6.4 | 12.9 | 0.00 | 0.36 | 0.00 | 61 | 1004.9 |
| 20260509075347 | 21 | 5 | 1.6 | 16.1 | 0.00 | 0.36 | 0.00 | 67 | 1005.5 |
| 20260509074401 | 21 | 24 | 0.0 | 6.4 | 0.00 | 0.36 | 0.00 | 67 | 1006.4 |
| 20260509073332 | 21 | 292 | 3.2 | 16.1 | 0.00 | 0.36 | 0.00 | 66 | 1007.2 |
| 20260509070108 | 20 | 196 | 9.7 | 22.5 | 0.00 | 0.36 | 0.00 | 75 | 1008.9 |
| 20260509065119 | 20 | 237 | 9.7 | 22.5 | 0.00 | 0.36 | 0.00 | 86 | 1009.3 |
| 20260509064112 | 20 | 202 | 6.4 | 16.1 | 0.00 | 0.48 | 0.00 | 90 | 1010.0 |
| 20260509063059 | 20 | 252 | 4.8 | 16.1 | 0.00 | 0.56 | 0.00 | 91 | 1010.4 |
| 20260509062051 | 20 | 279 | 3.2 | 11.3 | 0.00 | 0.61 | 0.00 | 91 | 1010.5 |
| 20260509061105 | 20 | 277 | 4.8 | 11.3 | 0.00 | 0.61 | 0.00 | 91 | 1010.2 |
| 20260509060056 | 20 | 305 | 1.6 | 9.7 | 0.00 | 0.61 | 0.00 | 90 | 1010.4 |
| 20260509055024 | 20 | 331 | 1.6 | 4.8 | 0.00 | 0.61 | 0.00 | 90 | 1010.3 |
| 20260509054017 | 20 | 174 | 1.6 | 4.8 | 0.00 | 0.61 | 0.00 | 90 | 1009.6 |
| 20260509052947 | 20 | 306 | 1.6 | 8.0 | 0.00 | 0.61 | 0.00 | 90 | 1010.0 |
| 20260509051931 | 20 | 0 | 4.8 | 8.0 | 0.00 | 0.61 | 0.00 | 90 | 1010.1 |
| 20260509050910 | 20 | 355 | 3.2 | 8.0 | 0.00 | 0.61 | 0.00 | 90 | 1009.9 |
| 20260509045933 | 20 | 165 | 0.0 | 1.6 | 0.00 | 0.61 | 0.64 | 90 | 1009.3 |
| 20260509044942 | 20 | 165 | 3.2 | 8.0 | 0.00 | 0.61 | 0.64 | 90 | 1008.6 |
| 20260509042827 | 20 | 176 | 4.8 | 8.0 | 0.00 | 0.61 | 0.64 | 89 | 1008.4 |
| 20260509041840 | 20 | 148 | 3.2 | 8.0 | 0.00 | 0.61 | 0.64 | 89 | 1008.4 |
| 20260509040812 | 20 | 127 | 3.2 | 9.7 | 0.00 | 0.61 | 0.64 | 88 | 1008.4 |
| 20260509035740 | 20 | 121 | 1.6 | 9.7 | 0.00 | 0.61 | 0.64 | 88 | 1008.5 |
| 20260509034725 | 20 | 61 | 3.2 | 4.8 | 0.00 | 0.61 | 0.64 | 88 | 1008.5 |
| 20260509032640 | 20 | 134 | 3.2 | 8.0 | 0.00 | 0.61 | 0.64 | 87 | 1007.7 |
| 20260509030503 | 21 | 159 | 6.4 | 14.5 | 0.00 | 0.61 | 0.64 | 87 | 1007.3 |
| 20260509025528 | 21 | 163 | 8.0 | 17.7 | 0.00 | 0.61 | 0.64 | 87 | 1006.8 |
| 20260509024502 | 21 | 155 | 9.7 | 17.7 | 0.00 | 0.61 | 0.64 | 86 | 1006.4 |
| 20260509023439 | 21 | 169 | 9.7 | 19.3 | 0.00 | 0.61 | 0.64 | 86 | 1006.3 |
| 20260509022412 | 21 | 163 | 9.7 | 19.3 | 0.00 | 0.61 | 0.64 | 86 | 1006.3 |
| 20260509021350 | 21 | 169 | 9.7 | 16.1 | 0.00 | 0.61 | 0.64 | 85 | 1006.0 |
| 20260509020316 | 21 | 140 | 9.7 | 14.5 | 0.00 | 0.61 | 0.64 | 85 | 1006.0 |
| 20260509015250 | 21 | 132 | 4.8 | 8.0 | 0.00 | 0.61 | 0.64 | 84 | 1006.2 |
| 20260509014300 | 21 | 146 | 1.6 | 6.4 | 0.00 | 0.61 | 0.64 | 83 | 1006.5 |
| 20260509013241 | 21 | 121 | 3.2 | 6.4 | 0.00 | 0.61 | 0.64 | 83 | 1006.7 |
| 20260509012214 | 21 | 128 | 4.8 | 12.9 | 0.00 | 0.61 | 0.64 | 83 | 1006.5 |
| 20260509001543 | 22 | 158 | 12.9 | 20.9 | 0.00 | 0.61 | 0.64 | 79 | 1006.0 |
| 20260509000525 | 22 | 157 | 9.7 | 19.3 | 0.00 | 0.61 | 0.64 | 78 | 1006.1 |
| 20260508235511 | 22 | 153 | 9.7 | 19.3 | 0.00 | 0.61 | 0.64 | 78 | 1006.3 |
| 20260508233420 | 22 | 160 | 6.4 | 14.5 | 0.00 | 0.61 | 0.64 | 79 | 1006.5 |
| 20260508231217 | 22 | 168 | 8.0 | 16.1 | 0.00 | 0.61 | 0.64 | 78 | 1006.6 |
| 20260508230238 | 22 | 182 | 11.3 | 17.7 | 0.00 | 0.61 | 0.64 | 77 | 1006.6 |
| 20260508224036 | 23 | 153 | 11.3 | 20.9 | 0.00 | 0.61 | 0.64 | 76 | 1006.6 |
| 20260508223053 | 23 | 188 | 12.9 | 17.7 | 0.00 | 0.61 | 0.64 | 76 | 1006.8 |
| 20260508222059 | 23 | 149 | 9.7 | 22.5 | 0.00 | 0.61 | 0.64 | 75 | 1006.6 |
| 20260508221047 | 23 | 118 | 12.9 | 24.1 | 0.00 | 0.61 | 0.64 | 74 | 1006.7 |
| 20260508220052 | 23 | 152 | 14.5 | 25.7 | 0.00 | 0.61 | 0.64 | 75 | 1006.7 |
| 20260508215024 | 23 | 132 | 16.1 | 25.7 | 0.00 | 0.61 | 0.64 | 73 | 1006.7 |
| 20260508214003 | 23 | 161 | 16.1 | 25.7 | 0.00 | 0.61 | 0.64 | 72 | 1006.8 |
| 20260508213010 | 23 | 129 | 14.5 | 29.0 | 0.00 | 0.61 | 0.64 | 71 | 1006.9 |
| 20260508212031 | 23 | 138 | 16.1 | 29.0 | 0.00 | 0.61 | 0.64 | 69 | 1007.0 |
| 20260508211029 | 24 | 171 | 12.9 | 22.5 | 0.00 | 0.61 | 0.64 | 69 | 1007.2 |
| 20260508204843 | 24 | 147 | 9.7 | 20.9 | 0.00 | 0.61 | 0.64 | 70 | 1007.4 |
| 20260508203844 | 23 | 155 | 11.3 | 20.9 | 0.00 | 0.61 | 0.64 | 70 | 1007.5 |
| 20260508202900 | 23 | 58 | 8.0 | 17.7 | 0.00 | 0.61 | 0.64 | 68 | 1007.9 |
| 20260508201842 | 23 | 169 | 9.7 | 19.3 | 0.00 | 0.61 | 0.64 | 70 | 1008.2 |
| 20260508194629 | 22 | 123 | 8.0 | 14.5 | 0.00 | 0.61 | 0.64 | 73 | 1009.1 |
| 20260508193603 | 21 | 163 | 11.3 | 19.3 | 0.00 | 0.61 | 0.64 | 74 | 1009.4 |
| 20260508191525 | 22 | 148 | 14.5 | 20.9 | 0.00 | 0.61 | 0.64 | 71 | 1009.4 |
| 20260508190459 | 22 | 190 | 12.9 | 24.1 | 0.00 | 0.61 | 0.64 | 72 | 1009.4 |
| 20260508185425 | 22 | 128 | 12.9 | 24.1 | 0.00 | 0.61 | 0.64 | 72 | 1009.4 |
| 20260508184440 | 22 | 153 | 11.3 | 19.3 | 0.00 | 0.61 | 0.64 | 72 | 1009.5 |
| 20260508183422 | 22 | 126 | 8.0 | 19.3 | 0.00 | 0.61 | 0.64 | 70 | 1009.6 |
| 20260508182405 | 22 | 134 | 8.0 | 16.1 | 0.00 | 0.61 | 0.64 | 70 | 1009.7 |
| 20260508181342 | 22 | 157 | 8.0 | 16.1 | 0.00 | 0.61 | 0.64 | 70 | 1009.9 |
| 20260508180327 | 22 | 161 | 6.4 | 17.7 | 0.00 | 0.61 | 0.64 | 70 | 1010.0 |
| 20260508175342 | 21 | 153 | 9.7 | 17.7 | 0.00 | 0.61 | 0.64 | 73 | 1010.1 |
| 20260508174311 | 21 | 150 | 12.9 | 19.3 | 0.00 | 0.61 | 0.64 | 72 | 1010.3 |
| 20260508173243 | 21 | 132 | 12.9 | 19.3 | 0.00 | 0.61 | 0.64 | 72 | 1010.6 |
| 20260508171144 | 21 | 147 | 8.0 | 19.3 | 0.00 | 0.61 | 0.64 | 70 | 1010.9 |
| 20260508170121 | 21 | 165 | 8.0 | 17.7 | 0.00 | 0.61 | 0.64 | 68 | 1010.9 |
| 20260508162856 | 20 | 133 | 9.7 | 16.1 | 0.00 | 0.61 | 0.64 | 72 | 1011.6 |
| 20260508161902 | 20 | 132 | 11.3 | 16.1 | 0.00 | 0.61 | 0.64 | 71 | 1011.8 |
| 20260508160922 | 20 | 189 | 11.3 | 17.7 | 0.00 | 0.61 | 0.64 | 72 | 1011.8 |
| 20260508155931 | 21 | 155 | 11.3 | 20.9 | 0.00 | 0.61 | 0.64 | 73 | 1011.8 |
| 20260508153829 | 20 | 171 | 8.0 | 14.5 | 0.00 | 0.61 | 0.64 | 75 | 1011.9 |
| 20260508151723 | 20 | 120 | 3.2 | 9.7 | 0.00 | 0.61 | 0.64 | 75 | 1012.1 |
| 20260508145559 | 19 | 155 | 4.8 | 9.7 | 0.00 | 0.61 | 0.64 | 77 | 1012.4 |
| 20260508143434 | 18 | 173 | 4.8 | 16.1 | 0.00 | 0.61 | 0.64 | 78 | 1012.5 |
| 20260508142452 | 18 | 152 | 8.0 | 16.1 | 0.00 | 0.61 | 0.64 | 77 | 1012.6 |
| 20260508141514 | 18 | 132 | 9.7 | 16.1 | 0.00 | 0.61 | 0.64 | 81 | 1012.7 |